Meteo pe oră la Bolshie Nyrty

Astăzi, 8 Mai, Sâmbătă

Timp Temperatura Precipitaţii Vânt Presiune Umiditate
00:00 +12°C° 0 mm 1 m/s 750 mmHg 82%
01:00 +11°C° 0 mm 1 m/s 750 mmHg 85%
02:00 +11°C° 0 mm 1 m/s 751 mmHg 88%
03:00 +11°C° 0 mm 1 m/s 751 mmHg 91%
04:00 +11°C° 0 mm 1 m/s 751 mmHg 90%
05:00 +11°C° 0 mm 1 m/s 751 mmHg 89%
06:00 +11°C° 0 mm 1 m/s 751 mmHg 88%
07:00 +12°C° 0.2 mm 1 m/s 751 mmHg 86%
08:00 +13°C° 0.2 mm 1 m/s 752 mmHg 84%
09:00 +13°C° 0.2 mm 2 m/s 752 mmHg 82%
10:00 +14°C° 0.3 mm 2 m/s 752 mmHg 76%
11:00 +14°C° 0.3 mm 3 m/s 751 mmHg 70%
12:00 +15°C° 0.3 mm 4 m/s 751 mmHg 65%
13:00 +17°C° 0.1 mm 3 m/s 751 mmHg 61%
14:00 +17°C° 0.1 mm 3 m/s 751 mmHg 58%
15:00 +18°C° 0.1 mm 3 m/s 751 mmHg 55%
16:00 +17°C° 0 mm 3 m/s 750 mmHg 58%
17:00 +17°C° 0 mm 2 m/s 750 mmHg 62%
18:00 +17°C° 0 mm 2 m/s 750 mmHg 66%
19:00 +15°C° 0 mm 2 m/s 750 mmHg 69%
20:00 +13°C° 0 mm 3 m/s 750 mmHg 72%
21:00 +12°C° 0 mm 3 m/s 750 mmHg 75%
22:00 +12°C° 0 mm 3 m/s 750 mmHg 76%
23:00 +11°C° 0 mm 3 m/s 749 mmHg 77%

Mâine, 9 Mai, Duminică

Timp Temperatura Precipitaţii Vânt Presiune Umiditate
00:00 +11°C° 0 mm 4 m/s 749 mmHg 77%
01:00 +11°C° 0 mm 4 m/s 749 mmHg 76%
02:00 +11°C° 0 mm 4 m/s 749 mmHg 75%
03:00 +11°C° 0 mm 4 m/s 749 mmHg 74%
04:00 +11°C° 0 mm 4 m/s 749 mmHg 74%
05:00 +12°C° 0 mm 4 m/s 749 mmHg 75%
06:00 +12°C° 0 mm 4 m/s 749 mmHg 75%
07:00 +14°C° 0 mm 4 m/s 749 mmHg 69%
08:00 +16°C° 0 mm 5 m/s 749 mmHg 64%
09:00 +17°C° 0 mm 5 m/s 749 mmHg 58%
10:00 +19°C° 0 mm 6 m/s 749 mmHg 54%
11:00 +20°C° 0 mm 6 m/s 749 mmHg 50%
12:00 +21°C° 0 mm 6 m/s 749 mmHg 47%
13:00 +21°C° 0 mm 5 m/s 749 mmHg 50%
14:00 +20°C° 0 mm 3 m/s 749 mmHg 53%
15:00 +19°C° 0 mm 2 m/s 749 mmHg 57%
16:00 +19°C° 0 mm 2 m/s 749 mmHg 58%
17:00 +19°C° 0 mm 2 m/s 749 mmHg 60%
18:00 +19°C° 0 mm 2 m/s 749 mmHg 61%
19:00 +18°C° 0 mm 2 m/s 749 mmHg 62%
20:00 +17°C° 0 mm 3 m/s 749 mmHg 63%
21:00 +16°C° 0 mm 3 m/s 749 mmHg 64%
22:00 +14°C° 0 mm 3 m/s 750 mmHg 69%
23:00 +14°C° 0 mm 3 m/s 750 mmHg 74%

Poimâine, 10 Mai, Luni

Timp Temperatura Precipitaţii Vânt Presiune Umiditate
00:00 +13°C° 0 mm 3 m/s 751 mmHg 79%
01:00 +14°C° 0.3 mm 2 m/s 751 mmHg 83%
02:00 +14°C° 0.3 mm 2 m/s 751 mmHg 88%
03:00 +13°C° 0.3 mm 1 m/s 751 mmHg 93%
04:00 +14°C° 0.1 mm 1 m/s 752 mmHg 92%
05:00 +14°C° 0.1 mm 2 m/s 753 mmHg 90%
06:00 +15°C° 0.1 mm 2 m/s 753 mmHg 89%
07:00 +13°C° 0 mm 3 m/s 754 mmHg 87%
08:00 +13°C° 0 mm 4 m/s 754 mmHg 86%
09:00 +13°C° 0 mm 5 m/s 755 mmHg 84%
10:00 +12°C° 0 mm 5 m/s 755 mmHg 82%
11:00 +12°C° 0 mm 5 m/s 756 mmHg 81%
12:00 +12°C° 0 mm 5 m/s 757 mmHg 79%
13:00 +10°C° 0.1 mm 5 m/s 757 mmHg 80%
14:00 +10°C° 0.1 mm 5 m/s 757 mmHg 82%
15:00 +9°C° 0.1 mm 5 m/s 758 mmHg 83%
16:00 +9°C° 0 mm 5 m/s 758 mmHg 83%
17:00 +9°C° 0 mm 5 m/s 759 mmHg 83%
18:00 +10°C° 0 mm 4 m/s 759 mmHg 83%
19:00 +8°C° 0 mm 4 m/s 759 mmHg 84%
20:00 +7°C° 0 mm 4 m/s 760 mmHg 86%
21:00 +6°C° 0 mm 4 m/s 760 mmHg 87%
22:00 +7°C° 0 mm 3 m/s 760 mmHg 88%
23:00 +5°C° 0 mm 3 m/s 760 mmHg 90%

11 Mai, Marţi

Timp Temperatura Precipitaţii Vânt Presiune Umiditate
00:00 +4°C° 0 mm 3 m/s 760 mmHg 91%
01:00 +4°C° 0 mm 3 m/s 761 mmHg 90%
02:00 +4°C° 0 mm 3 m/s 761 mmHg 89%
03:00 +4°C° 0 mm 3 m/s 761 mmHg 88%
04:00 +5°C° 0 mm 3 m/s 762 mmHg 83%
05:00 +5°C° 0 mm 4 m/s 762 mmHg 79%
06:00 +6°C° 0 mm 4 m/s 762 mmHg 74%
07:00 +8°C° 0 mm 4 m/s 762 mmHg 67%
08:00 +11°C° 0 mm 4 m/s 762 mmHg 59%
09:00 +12°C° 0 mm 4 m/s 763 mmHg 52%
10:00 +13°C° 0 mm 4 m/s 762 mmHg 48%
11:00 +14°C° 0 mm 4 m/s 762 mmHg 45%
12:00 +16°C° 0 mm 3 m/s 762 mmHg 42%
13:00 +17°C° 0 mm 3 m/s 762 mmHg 41%
14:00 +17°C° 0 mm 3 m/s 762 mmHg 40%
15:00 +18°C° 0 mm 4 m/s 762 mmHg 39%
16:00 +17°C° 0 mm 3 m/s 762 mmHg 45%
17:00 +16°C° 0 mm 3 m/s 762 mmHg 50%
18:00 +16°C° 0 mm 2 m/s 762 mmHg 56%
19:00 +14°C° 0 mm 2 m/s 762 mmHg 58%
20:00 +13°C° 0 mm 2 m/s 762 mmHg 61%
21:00 +11°C° 0 mm 1 m/s 762 mmHg 64%
22:00 +11°C° 0 mm 1 m/s 762 mmHg 64%
23:00 +11°C° 0 mm 1 m/s 762 mmHg 64%

12 Mai, Miercuri

Timp Temperatura Precipitaţii Vânt Presiune Umiditate
00:00 +11°C° 0 mm 1 m/s 762 mmHg 64%
01:00 +10°C° 0 mm 1 m/s 762 mmHg 64%
02:00 +10°C° 0 mm 1 m/s 762 mmHg 65%
03:00 +10°C° 0 mm 1 m/s 762 mmHg 66%
04:00 +11°C° 0 mm 1 m/s 762 mmHg 64%
05:00 +12°C° 0 mm 1 m/s 762 mmHg 63%
06:00 +13°C° 0 mm 1 m/s 762 mmHg 62%
07:00 +14°C° 0 mm 1 m/s 762 mmHg 59%
08:00 +16°C° 0 mm 1 m/s 762 mmHg 55%
09:00 +19°C° 0 mm 1 m/s 762 mmHg 52%
10:00 +20°C° 0 mm 1 m/s 762 mmHg 51%
11:00 +21°C° 0 mm 1 m/s 761 mmHg 50%
12:00 +22°C° 0 mm 1 m/s 761 mmHg 49%
13:00 +23°C° 0 mm 1 m/s 761 mmHg 49%
14:00 +23°C° 0 mm 2 m/s 761 mmHg 49%
15:00 +23°C° 0 mm 2 m/s 760 mmHg 48%
16:00 +23°C° 0 mm 2 m/s 760 mmHg 53%
17:00 +21°C° 0 mm 2 m/s 760 mmHg 59%
18:00 +21°C° 0 mm 1 m/s 760 mmHg 64%
19:00 +20°C° 0 mm 1 m/s 760 mmHg 68%
20:00 +19°C° 0 mm 1 m/s 760 mmHg 72%
21:00 +16°C° 0 mm 1 m/s 760 mmHg 76%
22:00 +16°C° 0 mm 1 m/s 760 mmHg 78%
23:00 +15°C° 0 mm 2 m/s 760 mmHg 80%

13 Mai, Joi

Timp Temperatura Precipitaţii Vânt Presiune Umiditate
00:00 +15°C° 0 mm 2 m/s 760 mmHg 82%
01:00 +14°C° 0 mm 2 m/s 760 mmHg 84%
02:00 +14°C° 0 mm 2 m/s 760 mmHg 85%
03:00 +14°C° 0 mm 2 m/s 759 mmHg 87%
04:00 +15°C° 0 mm 2 m/s 760 mmHg 83%
05:00 +16°C° 0 mm 2 m/s 760 mmHg 79%
06:00 +17°C° 0 mm 2 m/s 760 mmHg 75%
07:00 +18°C° 0 mm 2 m/s 760 mmHg 69%
08:00 +20°C° 0 mm 2 m/s 759 mmHg 62%
09:00 +21°C° 0 mm 2 m/s 759 mmHg 56%
10:00 +23°C° 0 mm 2 m/s 759 mmHg 52%
11:00 +24°C° 0 mm 2 m/s 759 mmHg 49%
12:00 +25°C° 0 mm 2 m/s 759 mmHg 45%
13:00 +25°C° 0 mm 2 m/s 759 mmHg 44%
14:00 +26°C° 0 mm 1 m/s 758 mmHg 43%
15:00 +26°C° 0 mm 1 m/s 758 mmHg 42%
16:00 +25°C° 0 mm 1 m/s 758 mmHg 46%
17:00 +25°C° 0 mm 1 m/s 758 mmHg 51%
18:00 +24°C° 0 mm 1 m/s 758 mmHg 55%
19:00 +22°C° 0 mm 1 m/s 758 mmHg 59%
20:00 +21°C° 0 mm 1 m/s 758 mmHg 62%
21:00 +19°C° 0 mm 1 m/s 758 mmHg 65%
22:00 +19°C° 0 mm 1 m/s 758 mmHg 67%
23:00 +18°C° 0 mm 1 m/s 758 mmHg 68%
Arată mai mult

Formular de consimțământ

Meteoprog și furnizorii noștri de servicii pot stoca și accesa date personale, precum cookies, identificatori de dispozitiv sau alte tehnologii similare pe dispozitivul dumneavoastră și procesa astfel de date pentru a personaliza conținutul și reclamele, dar și pentru a oferi caracteristici de social media și pentru a analiza traficul.

  • Stocarea și/sau accesarea informațiilor pe dispozitivul dumneavoastră

    Cookies, identificatori de dispozitiv sau alte informații pot fi stocate sau accesate pe dispozitiv în scopurile indicate mai sus.

  • Reclame și conținut personalizat, evaluarea reclamelor și a conținutului, informații despre audiențe și dezvoltarea produselor

    Reclamele și conținutul pot fi personalizate pe baza unui profil. Pot fi adăugate date suplimentare pentru a personaliza mai bine reclamele și conținutul. Performanța reclamelor și conținutului poate fi măsurată. Pot fi obținute informații despre utilizatorii care au văzut reclamele și conținutul. Aceste date pot fi utilizate pentru a dezvolta sau îmbunătăți experiența utilizatorilor, sistemele și software-ul.

Dând clic pe ‘Sunt de acord’, permiteți utilizarea cookie-urilor menționate, a identificatorilor de dispozitiv, balizelor web sau altor tehnologii similare. Setările pot fi modificate din browser-ul dispozitivului dumneavoastră.

În anumite scopuri, interesele legitime pot prima asupra consimțământului. Puteți citi mai multe informații în acest sens în Politica privind Confidențialitatea Datelor și Cookie.